This demonstration page uses our WeatherBlox Daily Observations layout. Learn more.

Left ArrowRight Arrow

Hourly Observations for September 25, 2021

Temp ( °F °C ) Dew Point ( °F °C ) Humidity (%) Winds ( mph kmh ) Pressure ( in mb ) Visibility ( mi km ) Precip ( " mm )
12:15 am 00:15 Clear 49 9.5 46 7.8 89 89 N N/A 30.18 1022 10 16 N/A
12:35 am 00:35 Clear 47 8.6 44 6.8 89 89 N N/A 30.19 1022 10 16 N/A
12:55 am 00:55 Clear 46 7.7 44 6.4 92 92 N N/A 30.19 1022 10 16 N/A
1:15 am 01:15 Clear 47 8.3 45 7 92 92 N N/A 30.19 1022 10 16 N/A
1:35 am 01:35 Clear 47 8.2 44 6.9 92 92 N N/A 30.18 1022 10 16 N/A
1:55 am 01:55 Clear 47 8.3 45 7.2 93 93 N N/A 30.19 1022 10 16 N/A
2:15 am 02:15 Clear 48 8.8 46 7.5 92 92 N N/A 30.18 1022 10 16 N/A
2:35 am 02:35 Clear 45 7.2 43 6 92 92 SW 3 6 30.20 1023 10 16 N/A
2:55 am 02:55 Clear 49 9.7 46 7.9 89 89 WSW 3 6 30.18 1022 10 16 N/A
3:15 am 03:15 Clear 52 11.1 47 8.3 83 83 WSW 3 6 30.16 1021 10 16 N/A
3:35 am 03:35 Clear 52 11.2 47 8.3 83 83 WSW 6 9 30.16 1021 10 16 N/A
3:55 am 03:55 Clear 52 10.9 46 8 82 82 WSW 3 6 30.16 1021 10 16 N/A
4:15 am 04:15 Clear 51 10.5 46 7.8 84 84 W 3 6 30.17 1022 10 16 N/A
4:35 am 04:35 Clear 51 10.5 46 7.8 84 84 W 3 6 30.17 1022 10 16 N/A
4:55 am 04:55 Clear 49 9.7 45 7.3 85 85 W 3 6 30.17 1022 10 16 N/A
5:15 am 05:15 Clear 49 9.6 45 7.4 86 86 N N/A 30.17 1022 10 16 N/A
5:35 am 05:35 Clear 48 9.1 45 7.1 87 87 N N/A 30.17 1022 10 16 N/A
5:55 am 05:55 Clear 48 9.1 45 7.1 87 87 N N/A 30.18 1022 10 16 N/A
6:15 am 06:15 Clear 48 9 45 7 87 87 N N/A 30.17 1022 10 16 N/A
6:35 am 06:35 Clear 48 9 44 6.9 87 87 WSW 3 6 30.18 1022 10 16 N/A
6:55 am 06:55 Clear 49 9.3 44 6.8 85 85 WSW 3 6 30.18 1022 10 16 N/A
7:15 am 07:15 Clear 50 9.8 45 7.1 83 83 WSW 5 7 30.17 1022 10 16 N/A
7:35 am 07:35 Sunny 50 9.8 45 7.1 83 83 N N/A 30.18 1022 10 16 N/A
7:55 am 07:55 Sunny 50 10.1 45 7.2 82 82 N N/A 30.18 1022 10 16 N/A
8:10 am 08:10 Sunny 52 11.1 46 7.7 80 80 WSW 3 6 30.17 1022 10 16 N/A
8:35 am 08:35 Sunny 54 12.4 47 8.2 76 76 WSW 6 9 30.16 1021 10 16 N/A
8:55 am 08:55 Sunny 56 13.5 47 8.1 70 70 WSW 7 11 30.14 1021 10 16 N/A
9:15 am 09:15 Sunny 58 14.2 47 8.1 67 67 WSW 8 13 30.14 1021 10 16 N/A
9:35 am 09:35 Sunny 59 15.1 47 8.3 64 64 SW 7 11 30.13 1020 10 16 N/A
9:55 am 09:55 Sunny 61 16 47 8.5 61 61 SW 9 15 30.12 1020 10 16 N/A
10:15 am 10:15 Sunny 63 17.2 48 9 59 59 SW 10 17 30.10 1019 10 16 N/A
10:35 am 10:35 Sunny 65 18.1 48 8.9 55 55 SW 15 24 30.09 1019 10 16 N/A
10:55 am 10:55 Sunny 66 18.8 46 7.5 48 48 SW 14 22 30.08 1019 10 16 N/A
11:15 am 11:15 Sunny 67 19.7 40 4.7 37 37 SSW 17 28 30.07 1018 10 16 N/A
11:35 am 11:35 Sunny 69 20.5 40 4.6 35 35 SSW 18 30 30.05 1018 10 16 N/A
11:55 am 11:55 Sunny 70 21 42 5.4 36 36 SSW 15 24 30.04 1017 10 16 N/A
12:15 pm 12:15 Sunny 72 22 41 5 33 33 SSW 17 28 30.02 1017 10 16 N/A
12:35 pm 12:35 Sunny 74 23.4 39 3.7 28 28 SSW 20 31 30.00 1016 10 16 N/A
12:50 pm 12:50 Sunny 75 23.8 37 2.8 25 25 SSW 21 33 29.99 1015 10 16 N/A
1:15 pm 13:15 Sunny 76 24.6 38 3.5 25 25 SSW 18 30 29.96 1015 10 16 N/A
1:35 pm 13:35 Sunny 77 25.2 38 3.2 24 24 SSW 21 33 29.94 1014 10 16 N/A
1:50 pm 13:50 Sunny 78 25.6 38 3.6 24 24 SSW 15 24 29.94 1014 10 16 N/A
2:15 pm 14:15 Sunny 79 26 39 3.9 24 24 SSW 17 28 29.93 1013 10 16 N/A
2:35 pm 14:35 Sunny 80 26.5 39 4 23 23 SSW 21 33 29.90 1013 10 16 N/A
2:55 pm 14:55 Sunny 80 26.9 40 4.3 23 23 SSW 17 28 29.89 1012 10 16 N/A
3:15 pm 15:15 Sunny 81 27.1 40 4.5 23 23 SSW 14 22 29.87 1012 10 16 N/A
3:35 pm 15:35 Sunny 81 27.4 40 4.4 23 23 SSW 17 28 29.87 1011 10 16 N/A
3:55 pm 15:55 Sunny 82 27.6 41 4.9 23 23 SSW 12 19 29.86 1011 10 16 N/A
4:15 pm 16:15 Sunny 82 27.5 42 5.3 24 24 SSW 15 24 29.85 1011 10 16 N/A
4:35 pm 16:35 Sunny 82 27.7 42 5.8 25 25 SSW 21 33 29.85 1011 10 16 N/A
4:55 pm 16:55 Sunny 82 27.7 42 5.6 24 24 SSW 16 26 29.84 1010 10 16 N/A
5:15 pm 17:15 Sunny 82 27.5 42 5.7 25 25 S 18 30 29.83 1010 10 16 N/A
5:35 pm 17:35 Sunny 82 27.6 43 6.3 26 26 S 16 26 29.82 1010 10 16 N/A
5:55 pm 17:55 Sunny 82 27.5 43 6.2 26 26 S 13 20 29.82 1010 10 16 N/A
6:15 pm 18:15 Sunny 81 27 44 6.6 27 27 S 15 24 29.81 1010 10 16 N/A
6:35 pm 18:35 Sunny 80 26.5 45 7 29 29 S 10 17 29.81 1010 10 16 N/A
6:55 pm 18:55 Sunny 78 25.7 45 7.2 31 31 S 10 17 29.82 1010 10 16 N/A
7:15 pm 19:15 Sunny 75 23.9 46 7.5 35 35 S 7 11 29.84 1010 10 16 N/A
7:35 pm 19:35 Clear 72 22.4 46 7.7 39 39 S 8 13 29.84 1010 10 16 N/A
7:55 pm 19:55 Clear 69 20.8 47 8.2 44 44 S 8 13 29.85 1011 10 16 N/A
8:15 pm 20:15 Clear 68 20.1 47 8.5 47 47 S 7 11 29.86 1011 10 16 N/A
8:35 pm 20:35 Clear 68 20 48 8.7 48 48 S 8 13 29.86 1011 10 16 N/A
8:55 pm 20:55 Clear 67 19.6 48 8.8 50 50 S 8 13 29.86 1011 10 16 N/A
9:15 pm 21:15 Clear 67 19.4 48 8.7 50 50 S 9 15 29.86 1011 10 16 N/A
9:35 pm 21:35 Clear 66 19 48 8.7 51 51 S 9 15 29.87 1011 10 16 N/A
9:55 pm 21:55 Clear 66 19 48 8.9 52 52 S 8 13 29.87 1011 10 16 N/A
10:15 pm 22:15 Clear 67 19.2 48 9 52 52 S 12 19 29.86 1011 10 16 N/A
10:35 pm 22:35 Clear 66 18.9 48 9.1 53 53 S 10 17 29.87 1011 10 16 N/A
10:55 pm 22:55 Clear 66 19 49 9.3 54 54 S 12 19 29.87 1011 10 16 N/A
11:15 pm 23:15 Clear 66 18.7 49 9.5 55 55 S 10 17 29.87 1011 10 16 N/A
11:35 pm 23:35 Clear 65 18.5 49 9.5 56 56 S 12 19 29.87 1012 10 16 N/A
11:55 pm 23:55 Clear 65 18.2 49 9.5 57 57 S 9 15 29.87 1012 10 16 N/A

Powered by AerisWeather